When you browse on this site, cookies collect data to enhance your experience and personalize the content and advertising you see.
Visit our Privacy Policy to learn more. By continuing to use the site, you agree to this use of cookies and data.
  • In Hungary
  • List of Countries
  • For 7 days
  • Water Temperature
  • Weather Map
  • News
  • Weather Widgets
  • user-avatar
    Login

    Hourly Weather Poddube

    Today, 6 December, Friday

    Time Temperature Precipitation Wind Pressure Humidity
    00:00 -4°C° 0 mm 5 mps 744 mmHg 81%
    01:00 -3°C° 0 mm 4 mps 744 mmHg 79%
    02:00 -3°C° 0 mm 4 mps 744 mmHg 82%
    03:00 -3°C° 0 mm 4 mps 743 mmHg 81%
    04:00 -4°C° 0 mm 4 mps 743 mmHg 81%
    05:00 -5°C° 0 mm 5 mps 742 mmHg 81%
    06:00 -5°C° 0 mm 5 mps 742 mmHg 81%
    07:00 -5°C° 0 mm 5 mps 742 mmHg 81%
    08:00 -5°C° 0 mm 5 mps 742 mmHg 81%
    09:00 -4°C° 0 mm 6 mps 741 mmHg 79%
    10:00 -3°C° 0 mm 6 mps 741 mmHg 76%
    11:00 -3°C° 0 mm 6 mps 740 mmHg 73%
    12:00 -2°C° 0 mm 6 mps 740 mmHg 71%
    13:00 -2°C° 0 mm 6 mps 740 mmHg 68%
    14:00 -1°C° 0 mm 6 mps 740 mmHg 66%
    15:00 -1°C° 0 mm 6 mps 740 mmHg 66%
    16:00 -2°C° 0 mm 6 mps 740 mmHg 67%
    17:00 -2°C° 0 mm 6 mps 740 mmHg 67%
    18:00 -2°C° 0 mm 6 mps 740 mmHg 69%
    19:00 -1°C° 0 mm 5 mps 740 mmHg 71%
    20:00 -1°C° 0 mm 5 mps 740 mmHg 72%
    21:00 -1°C° 0 mm 5 mps 740 mmHg 73%
    22:00 -1°C° 0 mm 5 mps 740 mmHg 74%
    23:00 -1°C° 0 mm 5 mps 740 mmHg 75%

    Tomorrow, 7 December, Saturday

    Time Temperature Precipitation Wind Pressure Humidity
    00:00 -1°C° 0 mm 5 mps 740 mmHg 76%
    01:00 -1°C° 0 mm 5 mps 740 mmHg 77%
    02:00 -1°C° 0 mm 5 mps 740 mmHg 77%
    03:00 -2°C° 0.1 mm 5 mps 739 mmHg 77%
    04:00 -2°C° 0.1 mm 5 mps 739 mmHg 78%
    05:00 -2°C° 0.1 mm 4 mps 739 mmHg 78%
    06:00 -2°C° 0 mm 4 mps 738 mmHg 78%
    07:00 -2°C° 0 mm 4 mps 738 mmHg 79%
    08:00 -2°C° 0 mm 4 mps 738 mmHg 79%
    09:00 -2°C° 0 mm 5 mps 738 mmHg 77%
    10:00 -2°C° 0 mm 5 mps 738 mmHg 75%
    11:00 -2°C° 0 mm 5 mps 737 mmHg 73%
    12:00 -1°C° 0 mm 5 mps 737 mmHg 72%
    13:00 -1°C° 0 mm 5 mps 736 mmHg 72%
    14:00 -1°C° 0 mm 5 mps 736 mmHg 71%
    15:00 -1°C° 0 mm 5 mps 736 mmHg 73%
    16:00 -1°C° 0 mm 5 mps 735 mmHg 74%
    17:00 -1°C° 0 mm 5 mps 735 mmHg 76%
    18:00 -1°C° 0 mm 5 mps 735 mmHg 77%
    19:00 -1°C° 0 mm 5 mps 735 mmHg 79%
    20:00 -1°C° 0 mm 5 mps 734 mmHg 80%
    21:00 0°C° 0.1 mm 5 mps 734 mmHg 84%
    22:00 0°C° 0.1 mm 5 mps 733 mmHg 88%
    23:00 +1°C° 0.1 mm 6 mps 733 mmHg 92%

    Day after tomorrow, 8 December, Sunday

    Time Temperature Precipitation Wind Pressure Humidity
    00:00 +1°C° 0.4 mm 6 mps 733 mmHg 92%
    01:00 +1°C° 0.4 mm 6 mps 733 mmHg 91%
    02:00 +2°C° 0.4 mm 6 mps 733 mmHg 91%
    03:00 +1°C° 0.1 mm 5 mps 733 mmHg 90%
    04:00 +1°C° 0.1 mm 5 mps 733 mmHg 89%
    05:00 0°C° 0.1 mm 5 mps 733 mmHg 88%
    06:00 0°C° 0 mm 5 mps 734 mmHg 88%
    07:00 -1°C° 0 mm 5 mps 734 mmHg 89%
    08:00 -1°C° 0 mm 4 mps 735 mmHg 89%
    09:00 -1°C° 0 mm 4 mps 735 mmHg 90%
    10:00 -1°C° 0 mm 4 mps 736 mmHg 92%
    11:00 -1°C° 0 mm 4 mps 736 mmHg 93%
    12:00 0°C° 0 mm 4 mps 737 mmHg 90%
    13:00 0°C° 0 mm 4 mps 737 mmHg 87%
    14:00 0°C° 0 mm 4 mps 737 mmHg 84%
    15:00 0°C° 0 mm 4 mps 737 mmHg 85%
    16:00 0°C° 0 mm 4 mps 737 mmHg 86%
    17:00 -1°C° 0 mm 4 mps 738 mmHg 87%
    18:00 -1°C° 0 mm 4 mps 737 mmHg 88%
    19:00 -1°C° 0 mm 4 mps 737 mmHg 90%
    20:00 -2°C° 0 mm 4 mps 737 mmHg 91%
    21:00 -1°C° 0.2 mm 4 mps 737 mmHg 93%
    22:00 0°C° 0.2 mm 5 mps 736 mmHg 94%
    23:00 0°C° 0.2 mm 5 mps 736 mmHg 95%

    9 December, Monday

    Time Temperature Precipitation Wind Pressure Humidity
    00:00 +1°C° 0.1 mm 5 mps 735 mmHg 93%
    01:00 +1°C° 0.1 mm 6 mps 735 mmHg 91%
    02:00 +1°C° 0.1 mm 6 mps 735 mmHg 89%
    03:00 +1°C° 0 mm 6 mps 734 mmHg 89%
    04:00 +1°C° 0 mm 6 mps 734 mmHg 88%
    05:00 +1°C° 0 mm 6 mps 733 mmHg 88%
    06:00 +1°C° 0.1 mm 6 mps 733 mmHg 88%
    07:00 +1°C° 0.1 mm 6 mps 733 mmHg 89%
    08:00 +1°C° 0.1 mm 6 mps 733 mmHg 89%
    09:00 +1°C° 0.1 mm 6 mps 733 mmHg 90%
    10:00 +2°C° 0.1 mm 6 mps 733 mmHg 90%
    11:00 +2°C° 0.1 mm 6 mps 733 mmHg 91%
    12:00 +2°C° 0.1 mm 5 mps 733 mmHg 91%
    13:00 +2°C° 0.1 mm 5 mps 733 mmHg 91%
    14:00 +3°C° 0.1 mm 5 mps 733 mmHg 90%
    15:00 +4°C° 0 mm 4 mps 733 mmHg 91%
    16:00 +3°C° 0 mm 4 mps 733 mmHg 92%
    17:00 +3°C° 0 mm 4 mps 734 mmHg 92%
    18:00 +3°C° 0 mm 4 mps 734 mmHg 93%
    19:00 +2°C° 0 mm 3 mps 734 mmHg 93%
    20:00 +2°C° 0 mm 3 mps 734 mmHg 94%
    21:00 +2°C° 0.2 mm 3 mps 734 mmHg 95%
    22:00 +3°C° 0.2 mm 2 mps 735 mmHg 95%
    23:00 +3°C° 0.2 mm 2 mps 735 mmHg 96%

    10 December, Tuesday

    Time Temperature Precipitation Wind Pressure Humidity
    00:00 +3°C° 0 mm 2 mps 735 mmHg 96%
    01:00 +3°C° 0 mm 2 mps 735 mmHg 97%
    02:00 +3°C° 0 mm 2 mps 734 mmHg 97%
    03:00 +3°C° 0 mm 2 mps 734 mmHg 97%
    04:00 +2°C° 0 mm 2 mps 734 mmHg 97%
    05:00 +2°C° 0 mm 2 mps 734 mmHg 97%
    06:00 +2°C° 0 mm 2 mps 734 mmHg 97%
    07:00 +2°C° 0 mm 2 mps 734 mmHg 97%
    08:00 +2°C° 0 mm 2 mps 734 mmHg 97%
    09:00 +3°C° 0.1 mm 2 mps 734 mmHg 96%
    10:00 +3°C° 0.1 mm 2 mps 734 mmHg 95%
    11:00 +3°C° 0.1 mm 2 mps 734 mmHg 93%
    12:00 +3°C° 0 mm 2 mps 734 mmHg 93%
    13:00 +4°C° 0 mm 1 mps 734 mmHg 93%
    14:00 +4°C° 0 mm 1 mps 734 mmHg 92%
    15:00 +3°C° 0 mm 2 mps 734 mmHg 93%
    16:00 +3°C° 0 mm 2 mps 734 mmHg 93%
    17:00 +3°C° 0 mm 2 mps 734 mmHg 93%
    18:00 +2°C° 0 mm 3 mps 734 mmHg 93%
    19:00 +2°C° 0 mm 3 mps 734 mmHg 93%
    20:00 +2°C° 0 mm 3 mps 735 mmHg 93%
    21:00 0°C° 0.1 mm 4 mps 735 mmHg 93%
    22:00 0°C° 0.1 mm 4 mps 735 mmHg 94%
    23:00 -1°C° 0.1 mm 4 mps 736 mmHg 95%

    11 December, Wednesday

    Time Temperature Precipitation Wind Pressure Humidity
    00:00 -1°C° 0.3 mm 5 mps 736 mmHg 88%
    01:00 -2°C° 0.3 mm 5 mps 737 mmHg 82%
    02:00 -4°C° 0.3 mm 6 mps 737 mmHg 76%
    03:00 -4°C° 0 mm 5 mps 738 mmHg 78%
    04:00 -5°C° 0 mm 5 mps 739 mmHg 80%
    05:00 -5°C° 0 mm 5 mps 739 mmHg 83%
    06:00 -4°C° 0 mm 4 mps 740 mmHg 82%
    07:00 -4°C° 0 mm 4 mps 740 mmHg 82%
    08:00 -4°C° 0 mm 4 mps 741 mmHg 81%
    09:00 -4°C° 0 mm 4 mps 741 mmHg 78%
    10:00 -3°C° 0 mm 4 mps 742 mmHg 75%
    11:00 -3°C° 0 mm 4 mps 742 mmHg 72%
    12:00 -2°C° 0 mm 3 mps 742 mmHg 71%
    13:00 -2°C° 0 mm 3 mps 742 mmHg 70%
    14:00 -1°C° 0 mm 3 mps 742 mmHg 69%
    15:00 -2°C° 0 mm 3 mps 742 mmHg 72%
    16:00 -2°C° 0 mm 3 mps 743 mmHg 76%
    17:00 -3°C° 0 mm 2 mps 743 mmHg 80%
    18:00 -4°C° 0 mm 3 mps 742 mmHg 79%
    19:00 -2°C° 0 mm 3 mps 742 mmHg 78%
    20:00 -3°C° 0 mm 4 mps 742 mmHg 77%
    21:00 -3°C° 0 mm 4 mps 742 mmHg 73%
    22:00 -4°C° 0 mm 5 mps 741 mmHg 70%
    23:00 -4°C° 0 mm 5 mps 741 mmHg 67%
    Show more